Regional Weather Roundup
Issued by NWS Charleston, WV

Home | Current Version | Previous Version | Text Only | Print | Product List | Glossary On
Versions: 1 2 3 4 5 6 7 8 9 10 11 12 13 14 15 16 17 18 19 20 21 22 23 24 25 26 27 28 29 30 31 32 33 34 35 36 37 38 39 40 41 42 43 44 45 46 47 48 49 50
000
ASUS41 KRLX 262210
RWRRLX
West Virginia Regional Weather Roundup
National Weather Service Charleston WV
600 PM EDT THU APR 26 2018

Note: "fair" indicates few or no clouds below 12,000 feet with no
significant weather and/or obstructions to visibility.

WVZ003-262300-
Northern Panhandle of West Virginia

CITY           SKY/WX    TMP DP  RH WIND       PRES   REMARKS
WHEELING       FAIR      61  36  39 CALM      29.86S
$$

WVZ009-262300-
Northwest West Virginia

CITY           SKY/WX    TMP DP  RH WIND       PRES   REMARKS
PARKERSBURG    FAIR      64  39  39 VRB6      29.88R
$$

WVZ006-262300-
Western West Virginia

CITY           SKY/WX    TMP DP  RH WIND       PRES   REMARKS
HUNTINGTON     FAIR      65  42  43 VRB5      29.84S
$$

WVZ015-262300-
West Central West Virginia

CITY           SKY/WX    TMP DP  RH WIND       PRES   REMARKS
CHARLESTON     PTSUNNY   63  41  44 NW5       29.84F
$$

WVZ022-031-262300-
North Central West Virginia

CITY           SKY/WX    TMP DP  RH WIND       PRES   REMARKS
CLARKSBURG     FAIR      61  38  42 VRB3      29.86R
MORGANTOWN     FAIR      63  35  35 CALM      29.87S
$$

WVZ025-035-042-045-262300-
Southern West Virginia

CITY           SKY/WX    TMP DP  RH WIND       PRES   REMARKS
BECKLEY        CLOUDY    58  36  43 CALM      29.87R
LOGAN          FAIR      61  41  48 CALM      29.86S
BLUEFIELD      LGT RAIN  55  40  56 CALM      29.88R
LEWISBURG      CLOUDY    62  39  43 SW3       29.86S
$$

WVZ047-262300-
Northern Mountains of West Virginia

CITY           SKY/WX    TMP DP  RH WIND       PRES   REMARKS
ELKINS         FAIR      61  34  36 NE3       29.86S
$$

WVZ052-262300-
Eastern Panhandle of West Virginia

CITY           SKY/WX    TMP DP  RH WIND       PRES   REMARKS
MARTINSBURG    FAIR      68  29  23 NW3       29.82S
PETERSBURG     FAIR      68  38  33 CALM      29.82S
$$



USA.gov is the U.S. government's official web portal to all federal, state and local government web resources and services.